Home > Weather > Wipperfürth > Past weeks

Flag for Germany Weather for the Past 2 Weeks in Wipperfürth, North Rhine-Westphalia, Germany

Now
34 °F

Clear.


Feels Like: 29 °F
Forecast: 49 / 69 °F
Wind: 6 mph from South

Location: Koeln / Bonn

Current Time: May 5, 2016 at 5:36:53 AM

Latest Report: May 5, 2016 at 5:20 AM


Visibility: 10 mi

Pressure: 30.33 "Hg

Humidity: 87%

Dew Point: 30 °F

Location of WipperfürthLocation

Historic Weather in Wipperfürth — Graph

°F

Wipperfürth Temperature Yesterday

Maximum temperature yesterday: 63 °F (at 4:50 PM)
Minimum temperature yesterday: 34 °F (at 5:20 AM)
Average temperature yesterday: 49 °F

High & Low Weather Summary for the Past Weeks

 TemperatureHumidityPressure
High70 °F (Apr 21, 3:50 PM)100% (Apr 24, 11:50 PM)30.45 "Hg (Apr 24, 11:50 PM)
Low30 °F (Apr 20, 6:50 AM)23% (Apr 21, 4:50 PM)29.53 "Hg (Apr 26, 10:50 AM)
Average47 °F68%30.04 "Hg
* Reported Apr 20 4:20 AM — May 5 4:20 AM, Wipperfürth, Weather by CustomWeather, © 2016

Note: Actual official high and low records may vary slightly from our data, if they occured in-between our weather recording intervals... More about our weather records

Advertising

Wipperfürth Weather History for the Previous 24 Hours

Scroll right to see more
 ConditionsComfort  
Time TempWeatherWind HumidityBarometerVisibility
4:20 AM
Thu, May 5
41 °FPassing clouds.3 mph66%30.33 "HgN/A
3:50 AM43 °FPassing clouds.3 mph61%30.33 "HgN/A
3:20 AM43 °FClear.6 mph61%30.33 "Hg10 mi
2:50 AM45 °FClear.6 mph57%30.33 "Hg10 mi
2:20 AM45 °FPassing clouds.5 mph57%30.33 "HgN/A
1:50 AM45 °FPassing clouds.6 mph57%30.33 "HgN/A
1:20 AM45 °FClear.5 mph61%30.33 "Hg10 mi
12:50 AM46 °FClear.7 mph57%30.33 "Hg10 mi
12:20 AM48 °FClear.8 mph54%30.33 "Hg10 mi
11:50 PM
Wed, May 4
48 °FClear.8 mph54%30.33 "Hg10 mi
11:20 PM50 °FClear.7 mph54%30.33 "Hg10 mi
10:50 PM50 °FClear.10 mph54%30.33 "Hg10 mi
10:20 PM50 °FClear.8 mph58%30.33 "Hg10 mi
9:50 PM50 °FSunny.7 mph54%30.33 "Hg10 mi
9:20 PM52 °FSunny.6 mph50%30.30 "Hg10 mi
8:50 PM54 °FSunny.2 mph54%30.30 "Hg10 mi
8:20 PM57 °FSunny.2 mph39%30.30 "Hg10 mi
7:50 PM59 °FSunny.5 mph34%30.33 "Hg10 mi
7:20 PM61 °FSunny.1 mph29%30.33 "Hg10 mi
6:50 PM61 °FSunny.2 mph31%30.33 "Hg10 mi
6:20 PM59 °FPassing clouds.3 mph34%30.33 "HgN/A
5:50 PM61 °FSunny.5 mph31%30.33 "Hg10 mi
5:20 PM61 °FSunny.5 mph31%30.33 "Hg10 mi
4:50 PM63 °FSunny.2 mph30%30.33 "Hg10 mi
4:20 PM61 °FSunny.5 mph31%30.33 "Hg10 mi
3:50 PM61 °FPassing clouds.3 mph31%30.36 "HgN/A
3:20 PM57 °FPassing clouds.8 mph36%30.36 "HgN/A
2:50 PM59 °FSunny.3 mph34%30.36 "Hg10 mi
2:20 PM57 °FSunny.6 mph39%30.36 "Hg10 mi
1:50 PM59 °FPassing clouds.7 mph39%30.36 "HgN/A
1:20 PM57 °FSunny.3 mph36%30.39 "Hg10 mi
12:50 PM55 °FSunny.5 mph38%30.39 "Hg10 mi
12:20 PM55 °FSunny.3 mph38%30.39 "Hg10 mi
11:50 AM54 °FScattered clouds.3 mph47%30.39 "HgN/A
11:20 AM55 °FScattered clouds.5 mph41%30.39 "HgN/A
10:50 AM54 °FScattered clouds.3 mph51%30.39 "HgN/A
10:20 AM52 °FPartly sunny.3 mph54%30.42 "HgN/A
9:50 AM50 °FScattered clouds.1 mph62%30.42 "HgN/A
9:20 AM48 °FScattered clouds.2 mph66%30.42 "HgN/A
8:50 AM46 °FScattered clouds.1 mph76%30.42 "HgN/A
8:20 AM43 °FScattered clouds.2 mph81%30.42 "HgN/A
7:50 AM41 °FScattered clouds.1 mph87%30.42 "HgN/A
7:20 AM36 °FScattered clouds.1 mph93%30.39 "HgN/A
6:50 AM34 °FFog.1 mph100%30.39 "HgN/A
6:20 AM34 °FFog.1 mph93%30.39 "HgN/A
5:50 AM34 °FFog.2 mph93%30.39 "HgN/A
5:20 AM34 °FFog.2 mph100%30.36 "HgN/A
Weather by CustomWeather, © 2016

See weather overviewHow to use our weather pages